TimeMDT,TemperatureF,Dew PointF,Humidity,Sea Level PressureIn,VisibilityMPH,Wind Direction,Wind SpeedMPH,Gust SpeedMPH,PrecipitationIn,Events,Conditions,WindDirDegrees,DateUTC
12:53 AM,75.9,39.0,26,29.86,10.0,SW,6.9,-,N/A,,Clear,220,2013-09-07 06:53:00
1:53 AM,73.9,37.9,27,29.86,10.0,WSW,4.6,-,N/A,,Clear,240,2013-09-07 07:53:00
2:53 AM,73.9,39.0,28,29.85,10.0,SSW,9.2,-,N/A,,Clear,200,2013-09-07 08:53:00
3:53 AM,69.1,39.0,33,29.86,10.0,Calm,Calm,-,N/A,,Clear,0,2013-09-07 09:53:00
4:53 AM,68.0,39.0,35,29.86,10.0,South,6.9,-,N/A,,Clear,170,2013-09-07 10:53:00
5:53 AM,66.0,39.9,38,29.87,10.0,SSW,10.4,-,N/A,,Clear,210,2013-09-07 11:53:00
6:53 AM,60.1,41.0,49,29.91,10.0,WNW,4.6,-,N/A,,Clear,290,2013-09-07 12:53:00
7:53 AM,66.9,41.0,39,29.92,10.0,Calm,Calm,-,N/A,,Clear,0,2013-09-07 13:53:00
8:53 AM,71.1,42.1,35,29.93,10.0,South,5.8,-,N/A,,Clear,190,2013-09-07 14:53:00
9:53 AM,75.0,44.1,33,29.94,10.0,South,5.8,-,N/A,,Clear,180,2013-09-07 15:53:00
10:53 AM,84.0,46.0,26,29.91,10.0,SSW,9.2,-,N/A,,Clear,210,2013-09-07 16:53:00
11:53 AM,90.0,44.1,20,29.89,10.0,South,8.1,-,N/A,,Clear,180,2013-09-07 17:53:00
12:53 PM,93.9,42.1,17,29.86,10.0,Calm,Calm,-,N/A,,Clear,0,2013-09-07 18:53:00
1:53 PM,96.1,39.0,14,29.83,10.0,SE,8.1,18.4,N/A,,Clear,130,2013-09-07 19:53:00
2:53 PM,98.1,39.0,13,29.80,10.0,SE,8.1,-,N/A,,Clear,140,2013-09-07 20:53:00
3:53 PM,99.0,36.0,11,29.79,10.0,SE,12.7,16.1,N/A,,Clear,140,2013-09-07 21:53:00
4:53 PM,99.0,36.0,11,29.77,10.0,SSE,11.5,-,N/A,,Clear,160,2013-09-07 22:53:00
5:53 PM,97.0,37.9,13,29.77,10.0,SE,16.1,21.9,N/A,,Clear,140,2013-09-07 23:53:00
6:53 PM,93.0,42.1,17,29.80,10.0,SE,18.4,-,N/A,,Clear,140,2013-09-08 00:53:00
7:53 PM,88.0,42.1,20,29.81,10.0,SSE,11.5,-,N/A,,Clear,160,2013-09-08 01:53:00
8:53 PM,84.9,43.0,23,29.83,10.0,SSE,10.4,-,N/A,,Clear,160,2013-09-08 02:53:00
9:53 PM,82.0,44.1,26,29.84,10.0,SSE,8.1,-,N/A,,Clear,160,2013-09-08 03:53:00
10:53 PM,81.0,44.1,27,29.83,10.0,SSE,9.2,-,N/A,,Clear,160,2013-09-08 04:53:00
11:53 PM,78.1,45.0,31,29.84,10.0,South,8.1,-,N/A,,Clear,170,2013-09-08 05:53:00